Location: Barcelona
(41.3829°N, 2.1774°E)
Time: 14:11:27
(UTC+00:00)

ISS - Pass Details

Date: 15 July 2024
Orbit: 410 x 424 km, 51.6° (Epoch: 14 July)

Event Time Altitude Azimuth Distance (km) Brightness Sun altitude
Rises 21:48:34 0° 300° (WNW) 2,341 1.1 -20.5°
Reaches altitude 10° 21:51:26 10° 328° (NNW) 1,480 0.2 -20.8°
Maximum altitude 21:53:16 14° 1° (N) 1,262 -0.6 -21.0°
Drops below altitude 10° 21:55:07 10° 35° (NE) 1,481 -0.7 -21.2°
Enters shadow 21:57:19 - 58° (ENE) 2,115 -0.2 -21.4°
